Location: Killam
(52.7910°N, 111.8608°W)
Time: 16:31:55
(UTC+00:00)

AO-91 - Visible Passes

Search period start: 13 January 2025 00:00
Search period end: 23 January 2025 00:00
Orbit: 436 x 694 km, 97.5° (Epoch: 13 January)

Date Brightness Start Highest point End Pass type
(mag) Time Alt. Az. Time Alt. Az. Time Alt. Az.
13 Jan ? 14:13:27 10° E 14:16:03 16° NE 14:18:45 10° NNE visible
14 Jan ? 14:13:45 10° E 14:16:25 16° NE 14:19:12 10° NNE visible
15 Jan ? 14:14:01 10° E 14:16:46 17° NE 14:19:37 10° NNE visible
16 Jan ? 14:14:16 10° E 14:17:04 17° NE 14:19:59 10° NNE visible
17 Jan ? 14:14:31 10° E 14:17:22 17° NE 14:20:20 10° NNE visible
18 Jan ? 14:14:44 10° E 14:17:38 18° NE 14:20:40 10° NNE visible
19 Jan ? 14:14:54 10° E 14:17:53 18° NE 14:20:58 10° NNE visible
20 Jan ? 14:15:05 10° E 14:18:06 18° NE 14:21:14 10° NNE visible
21 Jan ? 14:15:14 10° E 14:18:18 18° NE 14:21:28 10° NNE visible
22 Jan ? 14:15:22 10° E 14:18:29 19° NE 14:21:41 10° NNE visible
